STARLINK-35887

Last updated on Fri Dec 19 2025 00:02:08 GMT+0000 (Coordinated Universal Time)

1 66959U 25288A 25352.58336806 -.01229466 00000+0 -54508-2 0 9991 2 66959 43.0008 131.4250 0001507 276.2637 287.4073 15.85930914 2776
UTC large
Height (km)
Speed (km/s)
/
Latitude / Longitude
Inclination (degrees)
Orbital Period (minutes)
Azimuth
Elevation
Range (km)
Doppler Factor

Next 0 passes for location: London (51.5072 / 0.1276)

Sorry there are no passes over London.